Waarnemingen

Advertentie
Mijn weer
Solenzara, Frankrijk (7765): temperatuur & dauwpunt: 18.07.2019 00:00:00 - 24.07.2019 00:00:00 (CEST)Solenzara, Frankrijk (7765): temperatuur 5cm: 18.07.2019 00:00:00 - 24.07.2019 00:00:00 (CEST)Solenzara, Frankrijk (7765): temperatuur -20cm: 18.07.2019 00:00:00 - 24.07.2019 00:00:00 (CEST)Solenzara, Frankrijk (7765): windsnelheid & windstoten: 18.07.2019 00:00:00 - 24.07.2019 00:00:00 (CEST)Solenzara, Frankrijk (7765): windrichting: 18.07.2019 00:00:00 - 24.07.2019 00:00:00 (CEST)Solenzara, Frankrijk (7765): luchtdruk: 18.07.2019 00:00:00 - 24.07.2019 00:00:00 (CEST)Solenzara, Frankrijk (7765): zicht: 18.07.2019 00:00:00 - 24.07.2019 00:00:00 (CEST)Solenzara, Frankrijk (7765): Zonneschijnduur: 18.07.2019 00:00:00 - 24.07.2019 00:00:00 (CEST)Solenzara, Frankrijk (7765): neerslag: 18.07.2019 00:00:00 - 24.07.2019 00:00:00 (CEST)
Datum & Tijd tt [°C] td [°C] tt 5cm [°C] tt -20cm [°C] ff [km/u] ff [kn] fx [km/u] fx [kn] dd ppp [hPa] vv [km] sd [min] rr [mm]
24.07.2019 00:00:00 25,2 17,1 23,5 30,9 8 4 11 6 W 1017,0 39 0 0,0
23.07.2019 23:00:00 26,7 18,6 25,4 30,9 5 3 13 7 NNW 1016,6 35 0 0,0
23.07.2019 22:00:00 28,2 22,7 26,3 30,9 10 6 18 10 NNO 1016,2 19 0 0,0
23.07.2019 21:00:00 29,2 19,8 26,7 30,8 5 3 10 5 W 1016,1 38 10 0,0
23.07.2019 20:00:00 30,6 20,8 32,3 30,7 0 0 6 3 N 1016,4 40 60 0,0
23.07.2019 19:00:00 29,4 22,6 31,3 30,5 2 1 11 6 ZZO 1016,6 32 48 0,0
23.07.2019 18:00:00 30,3 21,9 33,4 30,3 5 3 13 7 O 1016,8 19 60 0,0
23.07.2019 17:00:00 30,1 21,5 34,4 30,1 9 5 16 9 O 1017,2 19 60 0,0
23.07.2019 16:00:00 30,3 22,2 35,3 29,8 10 6 20 11 O 1017,5 19 60 0,0
23.07.2019 15:00:00 30,2 20,7 36,4 29,6 12 7 21 12 O 1017,8 16 60 0,0
23.07.2019 14:00:00 30,4 19,7 37,5 29,4 10 5 19 10 O 1018,0 18 60 0,0
23.07.2019 13:00:00 30,2 18,6 37,3 29,2 9 5 18 10 O 1018,4 51 60 0,0
23.07.2019 12:00:00 29,9 19,6 37,7 29,1 9 5 16 8 O 1018,6 50 60 0,0
23.07.2019 11:00:00 29,2 21,2 34,8 29,1 8 5 16 9 O 1018,6 18 60 0,0
23.07.2019 10:00:00 28,4 20,4 34,4 29,2 10 6 14 8 O 1018,5 47 60 -
23.07.2019 09:00:00 28,5 19,2 32,6 29,3 7 4 13 7 ONO 1018,6 51 60 0,0
23.07.2019 08:00:00 27,1 17,3 25,0 29,4 3 2 12 6 W 1018,5 20 60 0,0
23.07.2019 07:00:00 24,1 17,3 22,6 29,6 8 4 16 9 W 1018,6 27 22 0,0
23.07.2019 06:00:00 23,3 17,1 22,3 29,7 9 5 16 9 W 1018,6 41 0 0,0
23.07.2019 05:00:00 23,4 16,9 22,6 29,8 10 5 16 8 W 1018,8 43 0 0,0
23.07.2019 04:00:00 23,5 17,3 22,7 29,9 9 5 12 7 W 1019,1 45 0 0,0
23.07.2019 03:00:00 23,7 17,0 22,9 30,0 9 5 12 6 W 1019,3 47 0 0,0
23.07.2019 02:00:00 24,3 16,6 23,3 30,1 5 3 9 5 WNW 1019,5 56 0 0,0
23.07.2019 01:00:00 24,6 16,1 23,6 30,2 5 3 9 5 WNW 1019,6 60 0 0,0
23.07.2019 00:00:00 25,2 16,1 24,0 30,3 5 3 13 7 WNW 1019,7 60 0 0,0
22.07.2019 23:00:00 25,3 16,2 24,0 30,3 6 3 11 6 ZW 1019,8 60 0 0,0
22.07.2019 22:00:00 25,9 17,0 24,6 30,3 6 3 10 6 W 1019,6 60 0 0,0
22.07.2019 21:00:00 26,9 20,0 25,3 30,2 5 3 7 4 ZW 1019,6 60 0 0,0
22.07.2019 20:00:00 28,1 15,7 28,5 30,1 2 1 9 5 OZO 1019,7 60 46 0,0
22.07.2019 19:00:00 28,4 20,9 32,2 29,9 8 4 12 7 O 1019,7 59 60 0,0
22.07.2019 18:00:00 28,7 20,2 32,4 29,7 9 5 14 8 O 1019,9 60 60 0,0
22.07.2019 17:00:00 29,6 17,4 33,3 29,5 9 5 17 9 OZO 1020,3 60 60 0,0
22.07.2019 16:00:00 30,1 13,4 35,6 29,3 10 5 17 9 ZO 1020,4 57 60 0,0
22.07.2019 15:00:00 30,0 17,1 36,8 29,0 13 7 19 11 ZZO 1020,6 14 60 0,0
22.07.2019 14:00:00 29,5 17,3 36,6 28,8 11 6 18 10 ZZO 1021,1 20 60 0,0
22.07.2019 13:00:00 29,2 19,5 37,8 28,7 13 7 19 10 ZO 1021,6 56 60 0,0
22.07.2019 12:00:00 28,8 21,3 35,5 28,5 11 6 18 10 OZO 1021,6 59 60 0,0
22.07.2019 11:00:00 28,3 20,1 34,7 28,5 9 5 16 8 OZO 1021,7 58 60 0,0
22.07.2019 10:00:00 28,3 16,9 34,5 28,6 9 5 14 8 O 1021,5 53 60 0,0
22.07.2019 09:00:00 28,6 17,5 30,9 28,7 4 2 8 5 O 1021,4 45 60 0,0
22.07.2019 08:00:00 25,8 15,5 23,9 28,9 5 3 14 7 W 1021,5 20 60 0,0
22.07.2019 07:00:00 22,9 13,7 20,9 29,0 10 5 16 9 W 1021,2 46 20 0,0
22.07.2019 06:00:00 21,6 13,5 20,5 29,1 10 5 13 7 W 1021,0 60 0 0,0
22.07.2019 05:00:00 21,6 13,5 20,1 29,3 5 3 12 6 NW 1021,0 60 0 0,0
22.07.2019 04:00:00 22,1 14,7 21,1 29,4 9 5 14 8 W 1021,2 60 0 0,0
22.07.2019 03:00:00 22,5 14,6 21,3 29,6 6 3 12 6 W 1021,3 60 0 0,0
22.07.2019 02:00:00 22,8 14,9 21,6 29,6 9 5 14 8 W 1021,4 60 0 0,0
22.07.2019 01:00:00 23,0 16,1 22,0 29,7 8 4 14 7 W 1021,4 60 0 0,0
22.07.2019 00:00:00 23,1 16,9 22,3 29,8 8 4 12 7 W 1021,6 60 0 0,0
21.07.2019 23:00:00 23,7 18,1 23,0 29,8 6 4 10 6 W 1021,4 60 0 0,0
21.07.2019 22:00:00 24,2 20,3 23,5 29,8 8 4 10 5 NNW 1020,9 58 0 0,0
21.07.2019 21:00:00 25,0 21,5 24,1 29,8 5 3 19 11 ZO 1020,4 58 12 0,0
21.07.2019 20:00:00 26,1 21,5 26,9 29,8 15 8 25 14 Z 1019,9 56 60 0,0
21.07.2019 19:00:00 27,1 20,2 30,6 29,6 15 8 26 14 ZZO 1019,8 57 60 0,0
21.07.2019 18:00:00 27,5 20,8 30,7 29,4 16 9 28 15 ZZO 1019,8 49 60 0,0
21.07.2019 17:00:00 28,2 21,0 31,5 29,2 19 10 29 16 ZZO 1020,0 41 60 0,0
21.07.2019 16:00:00 28,3 21,8 33,4 29,0 19 10 30 16 ZZO 1020,3 43 60 0,0
21.07.2019 15:00:00 28,0 22,0 34,4 28,8 18 10 26 14 ZZO 1020,5 45 60 0,0
21.07.2019 14:00:00 28,0 22,2 34,3 28,6 16 9 27 14 ZZO 1020,9 43 60 0,0
21.07.2019 13:00:00 27,5 22,4 35,7 28,4 16 9 24 13 ZZO 1021,0 48 60 0,0
21.07.2019 12:00:00 27,4 22,4 35,2 28,4 15 8 24 13 ZZO 1020,8 20 60 0,0
21.07.2019 11:00:00 27,1 22,5 34,1 28,3 12 7 20 11 ZZO 1020,7 58 60 0,0
21.07.2019 10:00:00 26,4 22,0 32,8 28,4 10 6 18 10 ZO 1020,6 60 60 0,0
21.07.2019 09:00:00 25,7 20,5 30,5 28,5 8 5 13 7 ZO 1020,4 60 60 0,0
21.07.2019 08:00:00 25,0 18,4 23,7 28,7 5 3 8 4 Z 1020,5 50 60 0,0
21.07.2019 07:00:00 22,2 14,8 20,3 28,8 6 4 14 7 W 1020,5 57 30 0,0
21.07.2019 06:00:00 21,1 14,7 20,2 28,9 8 5 16 9 W 1020,5 50 0 0,0
21.07.2019 05:00:00 21,3 15,2 20,3 29,1 8 4 12 6 W 1019,9 53 0 0,0
21.07.2019 04:00:00 21,7 15,3 20,6 29,2 5 3 13 7 NW 1020,0 51 0 0,0
21.07.2019 03:00:00 21,9 16,0 20,9 29,3 8 4 15 8 W 1019,8 53 0 0,0
21.07.2019 02:00:00 22,4 15,7 21,4 29,5 8 4 16 8 W 1019,8 56 0 0,0
21.07.2019 01:00:00 22,5 16,1 21,7 29,6 8 5 14 8 W 1019,8 59 0 0,0
21.07.2019 00:00:00 23,0 16,5 22,1 29,7 8 4 12 6 WNW 1019,8 59 0 0,0
20.07.2019 23:00:00 23,3 17,3 21,7 29,7 6 4 11 6 W 1019,5 59 0 0,0
20.07.2019 22:00:00 23,8 20,9 22,6 29,7 5 3 11 6 W 1019,3 35 0 0,0
20.07.2019 21:00:00 24,6 21,9 23,4 29,7 6 3 15 8 Z 1018,8 48 13 0,0
20.07.2019 20:00:00 25,6 21,9 26,6 29,7 10 6 16 9 Z 1018,7 54 60 0,0
20.07.2019 19:00:00 26,4 22,0 30,5 29,5 11 6 19 10 Z 1018,6 55 60 0,0
20.07.2019 18:00:00 26,9 22,1 30,4 29,3 14 7 24 13 ZZO 1018,6 44 60 0,0
20.07.2019 17:00:00 27,4 20,7 31,5 29,1 14 7 22 12 ZZO 1018,6 37 60 0,0
20.07.2019 16:00:00 27,6 21,4 33,4 28,9 16 8 26 14 ZZO 1018,8 31 60 0,0
20.07.2019 15:00:00 27,5 22,0 34,0 28,7 17 9 27 15 ZZO 1018,8 34 60 0,0
20.07.2019 14:00:00 27,7 21,5 33,7 28,5 18 10 28 15 ZZO 1018,7 20 60 0,0
20.07.2019 13:00:00 27,2 21,0 35,0 28,3 19 10 27 14 ZZO 1018,9 31 60 0,0
20.07.2019 12:00:00 26,7 20,8 35,3 28,2 15 8 22 12 ZZO 1018,9 20 60 0,0
20.07.2019 11:00:00 26,2 21,2 32,8 28,2 11 6 20 11 ZO 1018,8 19 60 0,0
20.07.2019 10:00:00 26,9 20,5 31,4 28,3 11 6 16 9 O 1018,2 20 60 0,0
20.07.2019 09:00:00 25,6 20,8 28,0 28,3 8 4 15 8 ONO 1018,3 13 60 0,0
20.07.2019 08:00:00 24,1 18,7 23,3 28,5 6 3 10 5 NNW 1017,9 20 60 0,0
20.07.2019 07:00:00 21,7 18,5 20,1 28,7 4 2 10 5 W 1017,3 27 28 0,0
20.07.2019 06:00:00 21,0 18,0 20,2 28,8 8 4 11 6 W 1017,2 24 0 0,0
20.07.2019 05:00:00 21,4 18,4 20,5 29,0 7 4 12 6 W 1017,0 24 0 0,0
20.07.2019 04:00:00 21,6 18,6 20,6 29,1 7 4 10 5 W 1016,8 25 0 0,0
20.07.2019 03:00:00 22,2 19,2 20,6 29,2 3 1 11 6 NW 1016,7 22 0 0,0
20.07.2019 02:00:00 22,4 19,2 21,5 29,3 3 2 12 6 WNW 1016,7 25 0 0,0
20.07.2019 01:00:00 22,6 19,9 21,9 29,4 5 3 10 5 W 1016,9 21 0 0,0
20.07.2019 00:00:00 23,1 20,6 22,3 29,5 4 2 8 4 W 1016,9 20 0 0,0
19.07.2019 23:00:00 23,8 20,9 23,1 29,6 4 2 8 4 NW 1016,8 22 0 0,0
19.07.2019 22:00:00 24,0 21,3 23,2 29,6 4 2 6 3 NNW 1016,6 20 0 0,0
19.07.2019 21:00:00 24,3 21,4 23,4 29,5 3 2 7 4 O 1016,2 20 0 0,0
19.07.2019 20:00:00 24,9 21,8 25,0 29,5 6 3 14 7 OZO 1015,9 23 1 0,0
19.07.2019 19:00:00 25,6 21,9 27,0 29,3 9 5 17 9 ONO 1015,8 20 11 0,0
19.07.2019 18:00:00 25,4 21,5 26,9 29,1 9 5 16 9 NO 1015,6 20 0 0,0
19.07.2019 17:00:00 25,9 21,3 28,3 28,8 11 6 20 11 NO 1015,4 20 41 0,0
19.07.2019 16:00:00 27,4 21,4 33,2 28,5 11 6 22 12 O 1015,7 19 60 0,0
19.07.2019 15:00:00 27,4 21,4 33,5 28,3 12 7 21 11 O 1016,0 20 60 0,0
19.07.2019 14:00:00 27,3 21,1 33,7 28,0 12 6 22 12 O 1016,2 20 60 0,0
19.07.2019 13:00:00 27,1 21,2 34,9 27,8 14 8 23 12 O 1016,2 34 60 0,0
19.07.2019 12:00:00 26,8 20,6 33,8 27,7 14 8 22 12 O 1016,2 20 60 0,0
19.07.2019 11:00:00 26,8 21,6 32,3 27,7 16 8 24 13 O 1016,0 20 60 0,0
19.07.2019 10:00:00 26,6 20,2 30,9 27,7 17 9 23 12 ONO 1015,6 19 60 0,0
19.07.2019 09:00:00 26,2 19,8 27,5 27,8 14 7 22 12 NNO 1015,5 29 60 0,0
19.07.2019 08:00:00 24,8 19,2 22,9 28,0 12 7 18 10 NNW 1015,3 35 44 0,0
19.07.2019 07:00:00 21,7 15,3 20,1 28,1 9 5 14 8 W 1015,0 50 8 0,0
19.07.2019 06:00:00 21,3 15,6 19,9 28,3 7 4 16 9 NW 1014,8 50 0 0,0
19.07.2019 05:00:00 20,8 15,1 19,7 28,4 6 3 13 7 NW 1014,4 52 0 0,0
19.07.2019 04:00:00 20,9 12,6 19,1 28,6 8 4 13 7 WNW 1014,2 60 0 0,0
19.07.2019 03:00:00 20,4 14,7 18,9 28,8 8 4 15 8 N 1014,1 59 0 0,0
19.07.2019 02:00:00 21,4 12,8 20,4 28,9 9 5 14 8 W 1013,9 60 0 0,0
19.07.2019 01:00:00 22,0 13,4 20,8 29,0 8 5 15 8 W 1013,7 60 0 0,0
19.07.2019 00:00:00 22,6 14,4 21,5 29,1 10 5 16 9 W 1013,6 60 0 0,0
18.07.2019 23:00:00 23,0 15,1 21,9 29,1 9 5 14 7 W 1013,4 60 0 0,0
18.07.2019 22:00:00 24,0 15,8 22,9 29,1 7 4 13 7 NNW 1013,0 60 0 0,0
18.07.2019 21:00:00 24,9 16,6 23,7 29,1 6 4 8 4 NNW 1012,5 60 0 0,0
18.07.2019 20:00:00 25,7 17,4 25,5 29,0 3 2 11 6 O 1012,3 60 33 0,0
18.07.2019 19:00:00 26,8 17,0 30,4 28,8 6 3 14 7 ZO 1011,9 56 60 0,0
18.07.2019 18:00:00 27,7 16,9 30,9 28,6 9 5 18 10 O 1011,8 52 60 0,0
18.07.2019 17:00:00 27,6 18,9 31,1 28,4 12 6 24 13 OZO 1011,9 50 60 0,0
18.07.2019 16:00:00 28,3 19,2 32,3 28,1 16 9 25 13 OZO 1011,8 51 60 0,0
18.07.2019 15:00:00 27,8 19,3 34,4 27,9 15 8 24 13 ZO 1011,9 20 60 0,0
18.07.2019 14:00:00 27,6 20,4 32,8 27,6 18 10 30 16 ZZO 1011,9 49 60 0,0
18.07.2019 13:00:00 27,7 17,8 34,6 27,5 18 10 29 15 ZZO 1012,1 20 60 0,0
18.07.2019 12:00:00 26,9 19,3 34,2 27,4 16 9 26 14 ZZO 1012,2 60 60 0,0
18.07.2019 11:00:00 26,3 17,9 33,6 27,3 13 7 21 11 ZZO 1012,2 60 60 0,0
18.07.2019 10:00:00 26,5 17,6 33,1 27,4 9 5 14 8 ZO 1012,2 60 60 0,0
18.07.2019 09:00:00 26,3 16,5 28,4 27,5 5 3 10 6 ZZO 1012,2 60 60 0,0
18.07.2019 08:00:00 22,8 12,4 21,3 27,7 7 4 18 10 W 1012,1 54 60 0,0
18.07.2019 07:00:00 19,9 11,4 18,7 27,9 10 5 21 11 W 1011,9 60 40 0,0
18.07.2019 06:00:00 19,5 11,3 18,6 28,0 11 6 22 12 W 1011,8 60 0 0,0
18.07.2019 05:00:00 19,6 11,4 18,6 28,2 11 6 17 9 W 1011,7 60 0 0,0
18.07.2019 04:00:00 19,5 11,8 18,3 28,3 10 5 15 8 W 1011,8 60 0 0,0
18.07.2019 03:00:00 20,4 11,9 19,2 28,5 8 5 18 10 W 1011,8 60 0 0,0
18.07.2019 02:00:00 21,2 11,5 20,3 28,7 10 5 19 11 W 1011,8 60 0 0,0
18.07.2019 01:00:00 21,9 11,9 19,9 28,8 5 3 18 10 W 1012,4 60 0 0,0
18.07.2019 00:00:00 22,2 12,4 21,3 28,9 9 5 20 11 WNW 1012,3 60 0 0,0

tt = temperatuur
td = dauwpunt
tt 5cm = temperatuur 5cm
tt -20cm = temperatuur -20cm
ff = windsnelheid
fx = windstoten
dd = windrichting
ppp = luchtdruk
vv = zicht
sd = Zonneschijnduur
rr = neerslag

Weerstations in de omgeving